GW0077 Weather Reports


time (UTC)temp
C
wind
direction
speed
KPH
gust
KPH
rain 1hr
cm
rain 24hr
cm
rain mn
cm
humidity
%
barometer
mb
20260509024243 16 193 1.6 3.2 0.00 0.00 0.00 58 1011.6
20260509023720 16 194 1.6 3.2 0.00 0.00 0.00 58 1011.6
20260509023214 16 212 1.6 4.8 0.00 0.00 0.00 58 1011.6
20260509022748 17 192 3.2 4.8 0.00 0.00 0.00 58 1011.6
20260509022220 17 198 3.2 4.8 0.00 0.00 0.00 57 1011.6
20260509021714 17 199 1.6 4.8 0.00 0.00 0.00 57 1011.6
20260509021228 17 195 3.2 4.8 0.00 0.00 0.00 56 1011.5
20260509020721 17 198 3.2 4.8 0.00 0.00 0.00 57 1011.6
20260509020215 17 195 3.2 4.8 0.00 0.00 0.00 57 1011.4
20260509015743 17 194 3.2 4.8 0.00 0.00 0.00 56 1011.5
20260509015220 17 204 1.6 4.8 0.00 0.00 0.00 56 1011.5
20260509014713 17 205 3.2 4.8 0.00 0.00 0.00 56 1011.4
20260509014227 17 199 3.2 4.8 0.00 0.00 0.00 56 1011.4
20260509013720 17 200 3.2 4.8 0.00 0.00 0.00 56 1011.4
20260509013233 17 200 3.2 4.8 0.00 0.00 0.00 56 1011.3
20260509012726 17 195 3.2 4.8 0.00 0.00 0.00 56 1011.4
20260509012219 17 208 3.2 4.8 0.00 0.00 0.00 55 1011.4
20260509011712 17 201 3.2 4.8 0.00 0.00 0.00 55 1011.4
20260509011246 17 204 3.2 4.8 0.00 0.00 0.00 55 1011.4
20260509010722 17 196 3.2 4.8 0.00 0.00 0.00 54 1011.3
20260509010215 17 201 3.2 6.4 0.00 0.00 0.00 55 1011.5
20260509005722 18 234 3.2 6.4 0.00 0.00 0.00 54 1011.4
20260509005215 18 212 3.2 9.7 0.00 0.00 0.00 53 1011.3
20260509004728 18 205 4.8 8.0 0.00 0.00 0.00 53 1011.2
20260509004240 18 206 3.2 8.0 0.00 0.00 0.00 53 1011.2
20260509003731 18 201 4.8 8.0 0.00 0.00 0.00 52 1011.3
20260509003223 18 231 3.2 8.0 0.00 0.00 0.00 53 1011.2
20260509002736 18 216 3.2 8.0 0.00 0.00 0.00 52 1011.1
20260509002228 18 213 3.2 6.4 0.00 0.00 0.00 52 1011.2
20260509001744 18 212 3.2 9.7 0.00 0.00 0.00 51 1011.1
20260509001217 18 215 4.8 8.0 0.00 0.00 0.00 51 1011.1
20260509000750 19 217 4.8 12.9 0.00 0.00 0.00 51 1011.2
20260509000221 19 204 6.4 12.9 0.00 0.00 0.00 50 1011.3
20260508235727 19 207 3.2 9.7 0.00 0.00 0.00 50 1011.3
20260508235239 19 211 4.8 16.1 0.00 0.00 0.00 50 1011.3
20260508234731 19 210 8.0 16.1 0.00 0.00 0.00 51 1011.3
20260508234243 19 214 8.0 14.5 0.00 0.00 0.00 50 1011.3
20260508233714 19 196 4.8 9.7 0.00 0.00 0.00 49 1011.3
20260508233227 20 184 6.4 12.9 0.00 0.00 0.00 50 1011.3
20260508232723 20 191 6.4 12.9 0.00 0.00 0.00 48 1011.3
20260508232237 20 213 4.8 16.1 0.00 0.00 0.00 49 1011.3
20260508231749 20 192 8.0 14.5 0.00 0.00 0.00 48 1011.4
20260508231220 20 197 8.0 14.5 0.00 0.00 0.00 48 1011.4
20260508230713 20 214 4.8 12.9 0.00 0.00 0.00 48 1011.3
20260508230225 20 197 6.4 17.7 0.00 0.00 0.00 48 1011.3
20260508225751 20 218 9.7 17.7 0.00 0.00 0.00 46 1011.3
20260508225223 20 222 6.4 16.1 0.00 0.00 0.00 47 1011.2
20260508224716 21 214 9.7 24.1 0.00 0.00 0.00 45 1011.2
20260508224229 21 183 8.0 20.9 0.00 0.00 0.00 47 1011.1
20260508223724 21 207 8.0 20.9 0.00 0.00 0.00 47 1011.1
20260508223217 21 220 11.3 20.9 0.00 0.00 0.00 47 1011.0
20260508222730 21 261 11.3 17.7 0.00 0.00 0.00 48 1011.0
20260508222222 21 195 9.7 16.1 0.00 0.00 0.00 47 1011.0
20260508221715 20 198 8.0 19.3 0.00 0.00 0.00 47 1011.0
20260508221228 21 259 11.3 22.5 0.00 0.00 0.00 45 1011.1
20260508220721 21 196 9.7 25.7 0.00 0.00 0.00 46 1011.1
20260508220214 21 202 9.7 16.1 0.00 0.00 0.00 45 1011.1
20260508215725 21 211 8.0 14.5 0.00 0.00 0.00 45 1011.2
20260508215217 21 192 6.4 22.5 0.00 0.00 0.00 47 1011.2
20260508214730 21 208 8.0 22.5 0.00 0.00 0.00 47 1011.2
20260508214223 21 219 9.7 19.3 0.00 0.00 0.00 46 1011.2
20260508213715 21 194 4.8 25.7 0.00 0.00 0.00 47 1011.2
20260508213228 21 224 8.0 25.7 0.00 0.00 0.00 44 1011.2
20260508212720 22 203 8.0 14.5 0.00 0.00 0.00 45 1011.3
20260508212213 21 225 9.7 19.3 0.00 0.00 0.00 45 1011.4
20260508211746 21 215 9.7 19.3 0.00 0.00 0.00 44 1011.4
20260508211221 21 250 8.0 20.9 0.00 0.00 0.00 47 1011.5
20260508210714 21 179 8.0 22.5 0.00 0.00 0.00 48 1011.6
20260508210227 21 226 9.7 22.5 0.00 0.00 0.00 46 1011.5
20260508205713 21 238 9.7 20.9 0.00 0.00 0.00 46 1011.7
20260508205226 22 285 6.4 17.7 0.00 0.00 0.00 48 1011.8
20260508204720 21 263 8.0 17.7 0.00 0.00 0.00 49 1011.8
20260508204232 22 222 11.3 24.1 0.00 0.00 0.00 44 1011.9
20260508203745 22 236 12.9 24.1 0.00 0.00 0.00 44 1012.1
20260508203221 22 221 9.7 17.7 0.00 0.00 0.00 47 1012.2
20260508202714 22 240 6.4 19.3 0.00 0.00 0.00 46 1012.2
20260508202227 21 229 11.3 20.9 0.00 0.00 0.00 45 1012.1
20260508201720 21 231 12.9 20.9 0.00 0.00 0.00 45 1012.3
20260508201213 22 219 8.0 22.5 0.00 0.00 0.00 45 1012.5
20260508200725 22 244 9.7 22.5 0.00 0.00 0.00 43 1012.5
20260508200219 21 203 4.8 14.5 0.00 0.00 0.00 49 1012.5
20260508195724 21 234 1.6 17.7 0.00 0.00 0.00 50 1012.6
20260508195221 21 224 11.3 20.9 0.00 0.00 0.00 44 1012.7
20260508194731 21 181 9.7 20.9 0.00 0.00 0.00 44 1012.8
20260508194243 21 213 8.0 19.3 0.00 0.00 0.00 44 1012.6
20260508193715 21 193 8.0 24.1 0.00 0.00 0.00 43 1012.7
20260508193229 21 204 11.3 24.1 0.00 0.00 0.00 44 1012.7
20260508192721 21 191 8.0 22.5 0.00 0.00 0.00 43 1012.6
20260508192214 21 146 9.7 19.3 0.00 0.00 0.00 44 1012.6
20260508191746 21 222 8.0 19.3 0.00 0.00 0.00 42 1012.6
20260508191217 21 182 6.4 19.3 0.00 0.00 0.00 46 1012.7
20260508190715 21 195 4.8 19.3 0.00 0.00 0.00 45 1012.8
20260508190228 21 265 9.7 19.3 0.00 0.00 0.00 42 1012.9
20260508185714 21 238 8.0 19.3 0.00 0.00 0.00 43 1013.0
20260508185227 21 225 8.0 19.3 0.00 0.00 0.00 45 1013.0
20260508184721 21 184 8.0 19.3 0.00 0.00 0.00 44 1013.1
20260508184214 21 284 3.2 19.3 0.00 0.00 0.00 45 1013.1
20260508183727 21 224 3.2 20.9 0.00 0.00 0.00 46 1013.1
20260508183221 21 191 12.9 20.9 0.00 0.00 0.00 45 1013.2
20260508182719 21 222 11.3 20.9 0.00 0.00 0.00 44 1013.4
20260508182231 21 251 6.4 19.3 0.00 0.00 0.00 42 1013.4
20260508181725 21 143 6.4 19.3 0.00 0.00 0.00 45 1013.4
20260508181219 21 243 8.0 19.3 0.00 0.00 0.00 44 1013.7
20260508180732 21 246 9.7 19.3 0.00 0.00 0.00 46 1013.8
20260508180225 20 245 6.4 17.7 0.00 0.00 0.00 44 1014.0
20260508175732 20 206 11.3 20.9 0.00 0.00 0.00 43 1013.9
20260508175225 20 188 11.3 32.2 0.00 0.00 0.00 44 1014.1
20260508174722 20 200 12.9 32.2 0.00 0.00 0.00 44 1014.3
20260508174215 20 226 8.0 14.5 0.00 0.00 0.00 46 1014.4
20260508173728 20 182 6.4 19.3 0.00 0.00 0.00 47 1014.5
20260508173222 20 278 12.9 19.3 0.00 0.00 0.00 45 1014.7
20260508172715 20 257 9.7 17.7 0.00 0.00 0.00 47 1014.7
20260508172229 20 249 8.0 22.5 0.00 0.00 0.00 48 1014.8
20260508171722 20 231 8.0 22.5 0.00 0.00 0.00 48 1014.8
20260508171236 20 189 14.5 22.5 0.00 0.00 0.00 48 1014.8
20260508170713 20 288 6.4 19.3 0.00 0.00 0.00 52 1015.1
20260508170227 20 245 8.0 19.3 0.00 0.00 0.00 50 1015.2
20260508165712 19 259 6.4 19.3 0.00 0.00 0.00 50 1015.3
20260508165226 20 240 11.3 20.9 0.00 0.00 0.00 49 1015.5
20260508164720 20 272 9.7 20.9 0.00 0.00 0.00 49 1015.5
20260508164213 19 218 11.3 17.7 0.00 0.00 0.00 50 1015.5
20260508163727 19 251 4.8 19.3 0.00 0.00 0.00 53 1015.6
20260508163220 19 269 9.7 19.3 0.00 0.00 0.00 51 1015.8
20260508162718 19 230 8.0 19.3 0.00 0.00 0.00 51 1015.8
20260508162231 19 251 8.0 19.3 0.00 0.00 0.00 51 1015.7
20260508161725 19 203 8.0 16.1 0.00 0.00 0.00 50 1015.9
20260508161218 19 202 9.7 19.3 0.00 0.00 0.00 52 1015.9
20260508160731 19 241 8.0 22.5 0.00 0.00 0.00 52 1016.0
20260508160225 19 221 6.4 12.9 0.00 0.00 0.00 53 1016.2
20260508155752 18 201 3.2 17.7 0.00 0.00 0.00 54 1016.2
20260508155225 18 231 11.3 17.7 0.00 0.00 0.00 52 1016.4
20260508154740 18 223 6.4 12.9 0.00 0.00 0.00 54 1016.3
20260508154216 18 234 6.4 16.1 0.00 0.00 0.00 56 1016.3
20260508153729 18 204 8.0 17.7 0.00 0.00 0.00 54 1016.4
20260508153243 18 192 9.7 14.5 0.00 0.00 0.00 53 1016.5
20260508152716 18 205 6.4 14.5 0.00 0.00 0.00 56 1016.4
20260508152229 18 194 6.4 19.3 0.00 0.00 0.00 56 1016.5
20260508151723 18 217 9.7 19.3 0.00 0.00 0.00 54 1016.6
20260508151216 17 211 8.0 14.5 0.00 0.00 0.00 56 1016.7
20260508150730 17 203 8.0 16.1 0.00 0.00 0.00 54 1016.7
20260508150224 17 271 3.2 19.3 0.00 0.00 0.00 58 1016.7
20260508145735 17 237 6.4 19.3 0.00 0.00 0.00 55 1016.7
20260508145228 17 265 9.7 14.5 0.00 0.00 0.00 54 1016.8
20260508144722 17 282 4.8 14.5 0.00 0.00 0.00 57 1016.9
20260508144215 17 234 6.4 16.1 0.00 0.00 0.00 57 1016.9
20260508143728 17 221 8.0 17.7 0.00 0.00 0.00 56 1016.9
20260508143221 16 207 9.7 17.7 0.00 0.00 0.00 56 1016.7
20260508142735 16 247 6.4 17.7 0.00 0.00 0.00 56 1016.7
20260508142228 16 245 4.8 17.7 0.00 0.00 0.00 57 1016.8
20260508141721 16 210 6.4 12.9 0.00 0.00 0.00 56 1016.9
20260508141219 16 223 4.8 12.9 0.00 0.00 0.00 59 1016.9
20260508140713 16 206 4.8 14.5 0.00 0.00 0.00 57 1016.9
20260508140227 16 206 8.0 14.5 0.00 0.00 0.00 58 1017.0
20260508135734 16 207 3.2 11.3 0.00 0.00 0.00 61 1017.0
20260508135247 15 194 6.4 11.3 0.00 0.00 0.00 59 1017.1
20260508134719 15 228 4.8 8.0 0.00 0.00 0.00 60 1017.1
20260508134213 15 217 4.8 14.5 0.00 0.00 0.00 61 1017.1
20260508133727 14 214 6.4 14.5 0.00 0.00 0.00 62 1017.1
20260508133220 14 214 3.2 9.7 0.00 0.00 0.00 66 1017.1
20260508132718 13 231 6.4 9.7 0.00 0.00 0.00 65 1017.1
20260508132231 13 238 4.8 9.7 0.00 0.00 0.00 67 1017.0
20260508131725 13 219 4.8 9.7 0.00 0.00 0.00 67 1017.0
20260508131218 12 236 3.2 9.7 0.00 0.00 0.00 69 1017.0
20260508130751 12 231 3.2 6.4 0.00 0.00 0.00 71 1017.0
20260508130224 12 219 3.2 8.0 0.00 0.00 0.00 71 1017.0
20260508125730 12 203 3.2 8.0 0.00 0.00 0.00 71 1017.0
20260508125219 11 200 1.6 6.4 0.00 0.00 0.00 72 1017.1
20260508124716 11 195 4.8 6.4 0.00 0.00 0.00 72 1017.0
20260508124230 10 195 3.2 6.4 0.00 0.00 0.00 73 1017.0
20260508123724 10 168 3.2 6.4 0.00 0.00 0.00 75 1017.0
20260508123214 10 160 1.6 6.4 0.00 0.00 0.00 74 1016.9
20260508122728 9 184 3.2 8.0 0.00 0.00 0.00 75 1017.0
20260508122221 9 188 4.8 9.7 0.00 0.00 0.00 75 1017.0
20260508121715 8 153 4.8 9.7 0.00 0.00 0.00 76 1017.0
20260508121249 8 185 4.8 8.0 0.00 0.00 0.00 77 1017.0
20260508120741 8 186 4.8 8.0 0.00 0.00 0.00 77 1017.0
20260508120218 8 176 4.8 8.0 0.00 0.00 0.00 77 1016.9
20260508115745 7 143 4.8 6.4 0.00 0.00 0.00 78 1016.9
20260508115237 7 201 3.2 6.4 0.00 0.00 0.00 78 1016.9
20260508114730 7 190 3.2 8.0 0.00 0.00 0.00 79 1016.7
20260508114243 7 192 3.2 8.0 0.00 0.00 0.00 79 1016.7
20260508113716 6 164 4.8 8.0 0.00 0.00 0.00 80 1016.7
20260508113229 6 173 4.8 6.4 0.00 0.00 0.00 80 1016.6
20260508112723 6 185 4.8 6.4 0.00 0.00 0.00 80 1016.6
20260508112253 6 183 4.8 6.4 0.00 0.00 0.00 81 1016.5
20260508111746 6 188 4.8 6.4 0.00 0.00 0.00 82 1016.5
20260508111218 5 186 4.8 6.4 0.00 0.00 0.00 82 1016.4
20260508110716 5 195 4.8 6.4 0.00 0.00 0.00 83 1016.5
20260508110250 5 192 4.8 8.0 0.00 0.00 0.00 84 1016.4
20260508105715 5 167 4.8 8.0 0.00 0.00 0.00 85 1016.3
20260508105229 4 163 6.4 9.7 0.00 0.00 0.00 85 1016.3
20260508104722 4 186 6.4 9.7 0.00 0.00 0.00 85 1016.2
20260508104216 4 174 6.4 8.0 0.00 0.00 0.00 85 1016.2
20260508103730 4 169 6.4 8.0 0.00 0.00 0.00 85 1016.2
20260508103223 4 169 6.4 9.7 0.00 0.00 0.00 85 1016.3
20260508102737 4 169 8.0 9.7 0.00 0.00 0.00 85 1016.2
20260508102229 4 169 6.4 8.0 0.00 0.00 0.00 85 1016.3
20260508101726 4 171 6.4 6.4 0.00 0.00 0.00 85 1016.3
20260508101220 4 180 4.8 6.4 0.00 0.00 0.00 85 1016.3
20260508100753 5 184 4.8 6.4 0.00 0.00 0.00 84 1016.2
20260508100247 5 174 4.8 6.4 0.00 0.00 0.00 84 1016.2
20260508095732 5 179 4.8 6.4 0.00 0.00 0.00 84 1016.3
20260508095226 5 186 4.8 8.0 0.00 0.00 0.00 84 1016.3
20260508094719 5 178 4.8 8.0 0.00 0.00 0.00 84 1016.3
20260508094213 5 169 4.8 8.0 0.00 0.00 0.00 84 1016.3
20260508093727 5 175 4.8 8.0 0.00 0.00 0.00 84 1016.2
20260508093224 5 176 6.4 8.0 0.00 0.00 0.00 83 1016.2
20260508092738 5 183 4.8 8.0 0.00 0.00 0.00 83 1016.3
20260508092231 5 179 4.8 6.4 0.00 0.00 0.00 83 1016.3
20260508091724 5 186 4.8 8.0 0.00 0.00 0.00 83 1016.2
20260508091218 5 186 6.4 8.0 0.00 0.00 0.00 83 1016.2
20260508090732 5 170 6.4 8.0 0.00 0.00 0.00 83 1016.1
20260508090226 5 167 6.4 8.0 0.00 0.00 0.00 83 1016.1
20260508085732 5 174 4.8 6.4 0.00 0.00 0.00 83 1016.1
20260508085230 5 173 4.8 6.4 0.00 0.00 0.00 83 1016.1
20260508084744 5 186 4.8 6.4 0.00 0.00 0.00 83 1016.0
20260508084216 5 191 4.8 6.4 0.00 0.00 0.00 83 1016.1
20260508083730 5 184 4.8 6.4 0.00 0.00 0.00 83 1016.1
20260508083224 5 180 4.8 6.4 0.00 0.00 0.00 83 1016.0
20260508082718 5 186 4.8 6.4 0.00 0.00 0.00 83 1016.0
20260508082231 5 182 4.8 6.4 0.00 0.00 0.00 82 1016.0
20260508081724 5 175 4.8 6.4 0.00 0.00 0.00 82 1015.9
20260508081222 5 185 4.8 6.4 0.00 0.00 0.00 82 1015.9
20260508080716 5 187 3.2 6.4 0.00 0.00 0.00 82 1015.9
20260508080230 5 178 3.2 6.4 0.00 0.00 0.00 82 1015.9
20260508075717 5 176 4.8 8.0 0.00 0.00 0.00 82 1016.0
20260508075231 5 187 4.8 8.0 0.00 0.00 0.00 82 1015.9
20260508074745 5 176 8.0 8.0 0.00 0.00 0.00 82 1015.9
20260508074218 5 168 4.8 6.4 0.00 0.00 0.00 82 1016.0
20260508073731 6 176 4.8 6.4 0.00 0.00 0.00 81 1016.0
20260508073225 6 167 4.8 8.0 0.00 0.00 0.00 80 1016.0
20260508072723 6 169 6.4 6.4 0.00 0.00 0.00 79 1016.1
20260508072217 6 173 4.8 6.4 0.00 0.00 0.00 78 1016.1
20260508071731 6 186 4.8 6.4 0.00 0.00 0.00 78 1016.2
20260508071225 6 195 4.8 8.0 0.00 0.00 0.00 77 1016.2
20260508070739 6 194 6.4 6.4 0.00 0.00 0.00 77 1016.2
20260508070230 6 184 4.8 6.4 0.00 0.00 0.00 76 1016.3
20260508065718 7 188 4.8 6.4 0.00 0.00 0.00 76 1016.3
20260508065252 7 191 4.8 4.8 0.00 0.00 0.00 76 1016.4
20260508064724 7 189 3.2 3.2 0.00 0.00 0.00 76 1016.4
20260508064222 7 198 1.6 3.2 0.00 0.00 0.00 76 1016.5
20260508063716 7 212 1.6 4.8 0.00 0.00 0.00 73 1016.5
20260508063229 7 229 3.2 6.4 0.00 0.00 0.00 74 1016.5
20260508062724 7 206 3.2 6.4 0.00 0.00 0.00 75 1016.5
20260508062217 7 211 3.2 6.4 0.00 0.00 0.00 77 1016.5
20260508061731 7 209 3.2 6.4 0.00 0.00 0.00 77 1016.6
20260508061245 7 200 4.8 6.4 0.00 0.00 0.00 76 1016.6
20260508060737 7 195 3.2 6.4 0.00 0.00 0.00 75 1016.6
20260508060214 7 196 3.2 6.4 0.00 0.00 0.00 74 1016.7
20260508055721 7 226 4.8 6.4 0.00 0.00 0.00 75 1016.8
20260508055235 7 218 3.2 6.4 0.00 0.00 0.00 76 1016.8
20260508054747 7 212 3.2 6.4 0.00 0.00 0.00 77 1016.9
20260508054239 7 231 4.8 6.4 0.00 0.00 0.00 77 1016.9
20260508053752 7 229 4.8 6.4 0.00 0.00 0.00 77 1016.8
20260508053225 7 211 3.2 6.4 0.00 0.00 0.00 79 1016.8
20260508052718 7 203 4.8 6.4 0.00 0.00 0.00 78 1016.7
20260508052232 7 215 4.8 6.4 0.00 0.00 0.00 78 1016.7
20260508051726 6 210 3.2 4.8 0.00 0.00 0.00 81 1016.7
20260508051219 7 210 3.2 4.8 0.00 0.00 0.00 81 1016.6
20260508050717 7 188 3.2 3.2 0.00 0.00 0.00 79 1016.7
20260508050230 7 217 1.6 4.8 0.00 0.00 0.00 81 1016.7
20260508045718 7 217 3.2 4.8 0.00 0.00 0.00 79 1016.6
20260508045232 7 192 3.2 4.8 0.00 0.00 0.00 79 1016.6
20260508044745 7 188 3.2 4.8 0.00 0.00 0.00 80 1016.6
20260508044218 7 198 1.6 4.8 0.00 0.00 0.00 79 1016.8
20260508043732 7 187 3.2 4.8 0.00 0.00 0.00 79 1016.7
20260508043226 7 195 3.2 4.8 0.00 0.00 0.00 79 1016.7
20260508042739 7 193 3.2 4.8 0.00 0.00 0.00 79 1016.7
20260508042215 7 185 3.2 4.8 0.00 0.00 0.00 77 1016.8
20260508041728 7 191 3.2 4.8 0.00 0.00 0.00 77 1016.8
20260508041222 7 192 3.2 3.2 0.00 0.00 0.00 78 1016.8
20260508040716 7 186 3.2 3.2 0.00 0.00 0.00 77 1016.8
20260508040249 8 195 3.2 4.8 0.00 0.00 0.00 75 1016.7
20260508035714 8 191 3.2 4.8 0.00 0.00 0.00 75 1016.7
20260508035228 8 174 3.2 6.4 0.00 0.00 0.00 75 1016.6
20260508034742 8 175 4.8 6.4 0.00 0.00 0.00 74 1016.7
20260508034214 8 170 4.8 6.4 0.00 0.00 0.00 73 1016.8
20260508033732 8 173 4.8 4.8 0.00 0.00 0.00 72 1016.8
20260508033226 8 169 3.2 4.8 0.00 0.00 0.00 72 1016.9
20260508032719 8 172 4.8 6.4 0.00 0.00 0.00 72 1016.8
20260508032252 8 174 4.8 6.4 0.00 0.00 0.00 72 1016.8
20260508031724 8 164 4.8 6.4 0.00 0.00 0.00 72 1016.7
20260508031238 8 149 4.8 6.4 0.00 0.00 0.00 72 1016.7
20260508030730 8 164 4.8 6.4 0.00 0.00 0.00 71 1016.6
20260508030224 9 153 3.2 6.4 0.00 0.00 0.00 71 1016.7
20260508025730 9 164 4.8 6.4 0.00 0.00 0.00 70 1016.6
20260508025228 9 143 4.8 6.4 0.00 0.00 0.00 68 1016.6
20260508024721 10 157 3.2 4.8 0.00 0.00 0.00 68 1016.6